Location: Famechon
(49.7599°N, 2.0615°E)
Time: 10:02:26
(UTC+00:00)

Okean-O - Pass Details

Date: 03 February 2023
Orbit: 637 x 638 km, 98.1° (Epoch: 24 March)

Event Time Altitude Azimuth Distance (km) Brightness Sun altitude
Exits shadow 19:22:25 26° 4° (N) 1,268 4.1 -24.8°
Drops below altitude 10° 19:24:28 10° 354° (N) 2,046 5.3 -25.1°
Sets 19:26:43 0° 350° (N) 2,960 6.2 -25.5°
